Time,TemperatureF,DewpointF,PressureIn,WindDirection,WindDirectionDegrees,WindSpeedMPH,WindSpeedGustMPH,Humidity,HourlyPrecipIn,Conditions,Clouds,dailyrainin,SoftwareType,DateUTC
2013-03-08 00:00:00,28.6,18.7,30.09,North,353,3.0,8.0,66,0.00,,,0.00,meteohub,2013-03-08 05:00:00,
2013-03-08 00:05:00,28.6,18.7,30.09,NNW,329,3.0,8.0,66,0.00,,,0.00,meteohub,2013-03-08 05:05:00,
2013-03-08 00:10:00,28.6,19.0,30.09,North,353,4.0,6.0,67,0.00,,,0.00,meteohub,2013-03-08 05:10:00,
2013-03-08 00:15:00,28.6,19.0,30.09,NNW,327,5.0,6.0,67,0.00,,,0.00,meteohub,2013-03-08 05:15:00,
2013-03-08 00:20:00,28.6,19.0,30.09,NNW,338,5.0,6.0,67,0.00,,,0.00,meteohub,2013-03-08 05:20:00,
2013-03-08 00:25:00,28.6,19.0,30.09,NNW,330,6.0,6.0,67,0.00,,,0.00,meteohub,2013-03-08 05:25:00,
2013-03-08 00:30:00,28.4,19.2,30.09,NNW,340,3.0,6.0,68,0.00,,,0.00,meteohub,2013-03-08 05:30:00,
2013-03-08 00:35:00,28.4,19.6,30.09,NNW,332,5.0,8.0,69,0.00,,,0.00,meteohub,2013-03-08 05:35:00,
2013-03-08 00:40:00,28.4,19.6,30.09,NNW,337,5.0,8.0,69,0.00,,,0.00,meteohub,2013-03-08 05:40:00,
2013-03-08 00:45:00,28.6,19.4,30.09,NW,310,6.0,8.0,68,0.00,,,0.00,meteohub,2013-03-08 05:45:00,
2013-03-08 00:50:00,28.6,19.4,30.09,NNW,346,5.0,8.0,68,0.00,,,0.00,meteohub,2013-03-08 05:50:00,
2013-03-08 00:55:00,28.6,19.4,30.09,NNW,335,4.0,8.0,68,0.00,,,0.00,meteohub,2013-03-08 05:55:00,
2013-03-08 01:00:00,28.6,19.4,30.09,NW,326,7.0,8.0,68,0.00,,,0.00,meteohub,2013-03-08 06:00:00,
2013-03-08 01:05:00,28.4,19.6,30.09,NNW,338,9.0,9.0,69,0.00,,,0.00,meteohub,2013-03-08 06:05:00,
2013-03-08 01:10:00,28.4,19.9,30.09,NNW,343,8.0,9.0,70,0.00,,,0.00,meteohub,2013-03-08 06:10:00,
2013-03-08 01:15:00,28.4,19.9,30.09,North,357,4.0,9.0,70,0.00,,,0.00,meteohub,2013-03-08 06:15:00,
2013-03-08 01:20:00,28.2,19.8,30.09,NNW,343,8.0,9.0,70,0.00,,,0.00,meteohub,2013-03-08 06:20:00,
2013-03-08 01:25:00,28.2,20.1,30.09,North,2,11.0,11.0,71,0.00,,,0.00,meteohub,2013-03-08 06:25:00,
2013-03-08 01:30:00,28.2,20.1,30.09,North,0,11.0,11.0,71,0.00,,,0.00,meteohub,2013-03-08 06:30:00,
2013-03-08 01:35:00,28.2,20.1,30.09,NNW,333,9.0,11.0,71,0.00,,,0.00,meteohub,2013-03-08 06:35:00,
2013-03-08 01:40:00,28.0,19.9,30.09,NNW,335,7.0,11.0,71,0.00,,,0.00,meteohub,2013-03-08 06:40:00,
2013-03-08 01:45:00,28.2,20.1,30.09,WNW,301,4.0,11.0,71,0.00,,,0.00,meteohub,2013-03-08 06:45:00,
2013-03-08 01:50:00,28.2,20.3,30.09,NW,309,6.0,13.0,72,0.00,,,0.00,meteohub,2013-03-08 06:50:00,
2013-03-08 01:55:00,28.0,19.9,30.09,NW,315,6.0,13.0,71,0.00,,,0.00,meteohub,2013-03-08 06:55:00,
2013-03-08 02:00:00,28.0,19.9,30.09,North,0,11.0,13.0,71,0.00,,,0.00,meteohub,2013-03-08 07:00:00,
2013-03-08 02:05:00,28.0,19.9,30.09,NW,326,10.0,13.0,71,0.00,,,0.00,meteohub,2013-03-08 07:05:00,
2013-03-08 02:10:00,28.0,19.9,30.09,NNW,329,13.0,13.0,71,0.00,,,0.00,meteohub,2013-03-08 07:10:00,
2013-03-08 02:15:00,28.0,19.9,30.09,NNW,334,6.0,13.0,71,0.00,,,0.00,meteohub,2013-03-08 07:15:00,
2013-03-08 02:20:00,28.0,19.9,30.09,North,6,5.0,13.0,71,0.00,,,0.00,meteohub,2013-03-08 07:20:00,
2013-03-08 02:25:00,28.0,19.9,30.06,NW,315,6.0,13.0,71,0.00,,,0.00,meteohub,2013-03-08 07:25:00,
2013-03-08 02:30:00,28.0,19.9,30.06,NW,316,4.0,12.0,71,0.00,,,0.00,meteohub,2013-03-08 07:30:00,
2013-03-08 02:35:00,28.0,19.9,30.06,WNW,290,3.0,10.0,71,0.00,,,0.00,meteohub,2013-03-08 07:35:00,
2013-03-08 02:40:00,28.0,19.9,30.06,NNW,338,11.0,13.0,71,0.00,,,0.00,meteohub,2013-03-08 07:40:00,
2013-03-08 02:45:00,28.0,19.9,30.06,WNW,297,6.0,14.0,71,0.00,,,0.00,meteohub,2013-03-08 07:45:00,
2013-03-08 02:50:00,28.0,19.9,30.06,NW,323,5.0,14.0,71,0.00,,,0.00,meteohub,2013-03-08 07:50:00,
2013-03-08 02:55:00,28.0,19.9,30.06,NW,312,6.0,14.0,71,0.00,,,0.00,meteohub,2013-03-08 07:55:00,
2013-03-08 03:00:00,27.9,19.8,30.06,NNW,338,7.0,11.0,71,0.00,,,0.00,meteohub,2013-03-08 08:00:00,
2013-03-08 03:05:00,27.9,19.8,30.06,NW,308,9.0,11.0,71,0.00,,,0.00,meteohub,2013-03-08 08:05:00,
2013-03-08 03:10:00,27.9,19.8,30.06,NNW,328,6.0,11.0,71,0.00,,,0.00,meteohub,2013-03-08 08:10:00,
2013-03-08 03:15:00,27.9,19.8,30.06,North,353,6.0,11.0,71,0.00,,,0.00,meteohub,2013-03-08 08:15:00,
2013-03-08 03:20:00,27.9,19.8,30.06,NW,317,4.0,10.0,71,0.00,,,0.00,meteohub,2013-03-08 08:20:00,
2013-03-08 03:25:00,27.9,19.8,30.06,NNW,341,10.0,11.0,71,0.00,,,0.00,meteohub,2013-03-08 08:25:00,
2013-03-08 03:30:00,27.9,19.8,30.06,NNW,344,8.0,15.0,71,0.00,,,0.00,meteohub,2013-03-08 08:30:00,
2013-03-08 03:35:00,27.9,19.8,30.06,NNW,337,8.0,15.0,71,0.00,,,0.00,meteohub,2013-03-08 08:35:00,
2013-03-08 03:40:00,27.9,19.8,30.03,WNW,300,8.0,15.0,71,0.00,,,0.00,meteohub,2013-03-08 08:40:00,
2013-03-08 03:45:00,27.9,19.8,30.03,NNW,346,8.0,15.0,71,0.00,,,0.00,meteohub,2013-03-08 08:45:00,
2013-03-08 03:50:00,27.9,19.8,30.03,NW,325,6.0,15.0,71,0.00,,,0.00,meteohub,2013-03-08 08:50:00,
2013-03-08 03:55:00,27.9,19.8,30.06,NW,324,9.0,14.0,71,0.00,,,0.00,meteohub,2013-03-08 08:55:00,
2013-03-08 04:00:00,27.9,19.4,30.06,WNW,289,8.0,14.0,70,0.00,,,0.00,meteohub,2013-03-08 09:00:00,
2013-03-08 04:05:00,27.9,19.4,30.06,WNW,299,8.0,14.0,70,0.00,,,0.00,meteohub,2013-03-08 09:05:00,
2013-03-08 04:10:00,27.7,19.2,30.06,NNW,343,8.0,13.0,70,0.00,,,0.00,meteohub,2013-03-08 09:10:00,
2013-03-08 04:15:00,27.9,19.4,30.06,NNW,343,10.0,13.0,70,0.00,,,0.00,meteohub,2013-03-08 09:15:00,
2013-03-08 04:20:00,27.9,19.4,30.06,NNW,327,8.0,13.0,70,0.00,,,0.00,meteohub,2013-03-08 09:20:00,
2013-03-08 04:25:00,27.7,19.2,30.06,NNW,329,9.0,15.0,70,0.00,,,0.00,meteohub,2013-03-08 09:25:00,
2013-03-08 04:30:00,27.7,19.2,30.06,NW,319,11.0,15.0,70,0.00,,,0.00,meteohub,2013-03-08 09:30:00,
2013-03-08 04:35:00,27.9,19.4,30.06,North,353,8.0,15.0,70,0.00,,,0.00,meteohub,2013-03-08 09:35:00,
2013-03-08 04:40:00,27.9,19.0,30.06,NNW,337,8.0,13.0,69,0.00,,,0.00,meteohub,2013-03-08 09:40:00,
2013-03-08 04:45:00,27.9,19.0,30.06,North,353,8.0,13.0,69,0.00,,,0.00,meteohub,2013-03-08 09:45:00,
2013-03-08 04:50:00,27.9,19.0,30.06,NNW,342,8.0,13.0,69,0.00,,,0.00,meteohub,2013-03-08 09:50:00,
2013-03-08 04:55:00,27.9,19.0,30.06,WNW,298,5.0,13.0,69,0.00,,,0.00,meteohub,2013-03-08 09:55:00,
2013-03-08 05:00:00,27.7,18.9,30.06,NNW,344,9.0,13.0,69,0.00,,,0.00,meteohub,2013-03-08 10:00:00,
2013-03-08 05:05:00,27.7,18.9,30.06,NNW,332,10.0,11.0,69,0.00,,,0.00,meteohub,2013-03-08 10:05:00,
2013-03-08 05:10:00,27.7,18.9,30.06,NNW,333,10.0,15.0,69,0.00,,,0.00,meteohub,2013-03-08 10:10:00,
2013-03-08 05:15:00,27.7,19.2,30.06,NNW,342,11.0,15.0,70,0.00,,,0.00,meteohub,2013-03-08 10:15:00,
2013-03-08 05:20:00,27.7,19.2,30.06,NW,312,7.0,15.0,70,0.00,,,0.00,meteohub,2013-03-08 10:20:00,
2013-03-08 05:25:00,27.7,19.6,30.06,NW,308,6.0,13.0,71,0.00,,,0.00,meteohub,2013-03-08 10:25:00,
2013-03-08 05:30:00,27.5,19.4,30.06,NNW,333,8.0,13.0,71,0.00,,,0.00,meteohub,2013-03-08 10:30:00,
2013-03-08 05:35:00,27.7,19.6,30.06,NW,318,9.0,13.0,71,0.00,,,0.00,meteohub,2013-03-08 10:35:00,
2013-03-08 05:40:00,27.5,19.4,30.06,NNW,329,5.0,14.0,71,0.00,,,0.00,meteohub,2013-03-08 10:40:00,
2013-03-08 05:45:00,27.5,19.4,30.06,NNW,339,9.0,14.0,71,0.00,,,0.00,meteohub,2013-03-08 10:45:00,
2013-03-08 05:50:00,27.5,19.4,30.06,NNW,331,8.0,14.0,71,0.00,,,0.00,meteohub,2013-03-08 10:50:00,
2013-03-08 05:55:00,27.5,19.4,30.06,North,357,8.0,12.0,71,0.00,,,0.00,meteohub,2013-03-08 10:55:00,
2013-03-08 06:00:00,27.5,19.4,30.06,NNW,338,10.0,12.0,71,0.00,,,0.00,meteohub,2013-03-08 11:00:00,
2013-03-08 06:05:00,27.3,19.6,30.06,NNW,344,6.0,12.0,72,0.00,,,0.00,meteohub,2013-03-08 11:05:00,
2013-03-08 06:10:00,27.3,19.6,30.03,NNW,343,11.0,13.0,72,0.00,,,0.00,meteohub,2013-03-08 11:10:00,
2013-03-08 06:15:00,27.3,19.6,30.03,North,349,17.0,17.0,72,0.00,,,0.00,meteohub,2013-03-08 11:15:00,
2013-03-08 06:20:00,27.3,19.6,30.03,NNW,338,6.0,17.0,72,0.00,,,0.00,meteohub,2013-03-08 11:20:00,
2013-03-08 06:25:00,27.3,19.6,30.06,NNW,341,6.0,17.0,72,0.00,,,0.00,meteohub,2013-03-08 11:25:00,
2013-03-08 06:30:00,27.3,19.6,30.06,WNW,300,8.0,17.0,72,0.00,,,0.00,meteohub,2013-03-08 11:30:00,
2013-03-08 06:35:00,27.3,19.2,30.06,NNW,342,12.0,17.0,71,0.00,,,0.00,meteohub,2013-03-08 11:35:00,
2013-03-08 06:40:00,27.3,19.2,30.06,NW,314,8.0,17.0,71,0.00,,,0.00,meteohub,2013-03-08 11:40:00,
2013-03-08 06:45:00,27.3,19.6,30.06,NNW,336,12.0,19.0,72,0.00,,,0.00,meteohub,2013-03-08 11:45:00,
2013-03-08 06:50:00,27.3,19.6,30.06,NW,316,15.0,19.0,72,0.00,,,0.00,meteohub,2013-03-08 11:50:00,
2013-03-08 06:55:00,27.3,19.6,30.06,NW,308,11.0,20.0,72,0.00,,,0.00,meteohub,2013-03-08 11:55:00,
2013-03-08 07:00:00,27.3,19.6,30.06,NW,306,8.0,20.0,72,0.00,,,0.00,meteohub,2013-03-08 12:00:00,
2013-03-08 07:06:00,27.3,19.6,30.06,NNW,338,13.0,20.0,72,0.00,,,0.00,meteohub,2013-03-08 12:06:00,
2013-03-08 07:11:00,27.3,19.6,30.06,NNW,327,8.0,19.0,72,0.00,,,0.00,meteohub,2013-03-08 12:11:00,
2013-03-08 07:16:00,27.3,19.2,30.06,West,269,11.0,19.0,71,0.00,,,0.00,meteohub,2013-03-08 12:16:00,
2013-03-08 07:21:00,27.3,19.2,30.06,North,353,10.0,19.0,71,0.00,,,0.00,meteohub,2013-03-08 12:21:00,
2013-03-08 07:26:00,27.3,19.2,30.06,NNW,340,8.0,17.0,71,0.00,,,0.00,meteohub,2013-03-08 12:26:00,
2013-03-08 07:31:00,27.5,19.6,30.06,NW,310,8.0,17.0,72,0.00,,,0.00,meteohub,2013-03-08 12:31:00,
2013-03-08 07:36:00,27.5,19.6,30.06,North,349,13.0,17.0,72,0.00,,,0.00,meteohub,2013-03-08 12:36:00,
2013-03-08 07:41:00,27.7,19.8,30.06,NW,320,13.0,15.0,72,0.00,,,0.00,meteohub,2013-03-08 12:41:00,
2013-03-08 07:46:00,27.9,19.8,30.06,North,357,10.0,15.0,71,0.00,,,0.00,meteohub,2013-03-08 12:46:00,
2013-03-08 07:51:00,27.9,19.8,30.06,NNW,338,13.0,15.0,71,0.00,,,0.00,meteohub,2013-03-08 12:51:00,
2013-03-08 07:56:00,27.9,19.4,30.06,WNW,292,13.0,15.0,70,0.00,,,0.00,meteohub,2013-03-08 12:56:00,
2013-03-08 08:01:00,28.2,19.4,30.06,North,0,8.0,17.0,69,0.00,,,0.00,meteohub,2013-03-08 13:01:00,
2013-03-08 08:06:00,28.4,19.6,30.06,NNW,327,11.0,17.0,69,0.00,,,0.00,meteohub,2013-03-08 13:06:00,
2013-03-08 08:11:00,28.4,19.2,30.03,NNW,327,8.0,22.0,68,0.00,,,0.00,meteohub,2013-03-08 13:11:00,
2013-03-08 08:16:00,28.6,19.0,30.03,NNW,330,4.0,22.0,67,0.00,,,0.00,meteohub,2013-03-08 13:16:00,
2013-03-08 08:21:00,28.6,18.7,30.06,NW,311,5.0,22.0,66,0.00,,,0.00,meteohub,2013-03-08 13:21:00,
2013-03-08 08:26:00,28.8,18.5,30.06,NNW,339,9.0,17.0,65,0.00,,,0.00,meteohub,2013-03-08 13:26:00,
2013-03-08 08:31:00,28.9,18.7,30.06,North,353,5.0,11.0,65,0.00,,,0.00,meteohub,2013-03-08 13:31:00,
2013-03-08 08:36:00,28.9,18.3,30.06,North,9,4.0,10.0,64,0.00,,,0.00,meteohub,2013-03-08 13:36:00,
2013-03-08 08:41:00,29.1,18.1,30.06,NNW,343,5.0,9.0,63,0.00,,,0.00,meteohub,2013-03-08 13:41:00,
2013-03-08 08:46:00,29.3,18.3,30.06,West,274,5.0,8.0,63,0.00,,,0.00,meteohub,2013-03-08 13:46:00,
2013-03-08 08:51:00,29.5,18.5,30.06,NNW,346,8.0,8.0,63,0.00,,,0.00,meteohub,2013-03-08 13:51:00,
2013-03-08 08:56:00,29.5,18.5,30.06,NNW,341,6.0,11.0,63,0.00,,,0.00,meteohub,2013-03-08 13:56:00,
2013-03-08 09:01:00,29.7,18.3,30.06,North,357,4.0,11.0,62,0.00,,,0.00,meteohub,2013-03-08 14:01:00,
2013-03-08 09:06:00,29.7,17.4,30.09,NNW,338,5.0,11.0,60,0.00,,,0.00,meteohub,2013-03-08 14:06:00,
2013-03-08 09:11:00,29.8,17.2,30.09,NNW,340,6.0,12.0,59,0.00,,,0.00,meteohub,2013-03-08 14:11:00,
2013-03-08 09:16:00,29.8,17.2,30.09,North,4,3.0,12.0,59,0.00,,,0.00,meteohub,2013-03-08 14:16:00,
2013-03-08 09:21:00,30.0,17.1,30.09,NNW,342,5.0,12.0,58,0.00,,,0.00,meteohub,2013-03-08 14:21:00,
2013-03-08 09:26:00,30.0,16.7,30.09,NW,323,15.0,15.0,57,0.00,,,0.00,meteohub,2013-03-08 14:26:00,
2013-03-08 09:31:00,30.0,16.7,30.09,NW,321,8.0,20.0,57,0.00,,,0.00,meteohub,2013-03-08 14:31:00,
2013-03-08 09:36:00,30.2,16.3,30.09,North,1,9.0,20.0,56,0.00,,,0.00,meteohub,2013-03-08 14:36:00,
2013-03-08 09:41:00,30.4,16.2,30.09,NNW,332,7.0,20.0,55,0.00,,,0.00,meteohub,2013-03-08 14:41:00,
2013-03-08 09:46:00,30.4,16.2,30.09,NW,324,13.0,13.0,55,0.00,,,0.00,meteohub,2013-03-08 14:46:00,
2013-03-08 09:51:00,30.6,16.0,30.09,NNW,341,5.0,13.0,54,0.00,,,0.00,meteohub,2013-03-08 14:51:00,
2013-03-08 09:56:00,30.7,15.6,30.09,NW,320,6.0,13.0,53,0.00,,,0.00,meteohub,2013-03-08 14:56:00,
2013-03-08 10:01:00,31.1,16.0,30.09,NW,324,13.0,13.0,53,0.00,,,0.00,meteohub,2013-03-08 15:01:00,
2013-03-08 10:06:00,31.1,16.3,30.09,NNW,330,8.0,13.0,54,0.00,,,0.00,meteohub,2013-03-08 15:06:00,
2013-03-08 10:11:00,31.1,15.4,30.09,NNW,333,9.0,17.0,52,0.00,,,0.00,meteohub,2013-03-08 15:11:00,
2013-03-08 10:28:00,31.6,15.6,30.09,NW,322,10.0,17.0,51,0.00,,,0.00,meteohub,2013-03-08 15:28:00,
2013-03-08 10:34:00,31.6,15.6,30.09,North,357,8.0,17.0,51,0.00,,,0.00,meteohub,2013-03-08 15:34:00,
2013-03-08 10:39:00,31.6,15.6,30.09,North,357,9.0,17.0,51,0.00,,,0.00,meteohub,2013-03-08 15:39:00,
2013-03-08 10:46:00,32.0,15.4,30.09,North,0,11.0,21.0,50,0.00,,,0.00,meteohub,2013-03-08 15:46:00,
2013-03-08 10:56:00,32.0,15.4,30.09,WNW,301,12.0,22.0,50,0.00,,,0.00,meteohub,2013-03-08 15:56:00,
2013-03-08 11:01:00,32.2,14.7,30.09,North,7,7.0,22.0,48,0.00,,,0.00,meteohub,2013-03-08 16:01:00,
2013-03-08 11:06:00,32.2,14.7,30.09,NNW,333,11.0,22.0,48,0.00,,,0.00,meteohub,2013-03-08 16:06:00,
2013-03-08 11:11:00,32.2,14.2,30.12,NNW,327,6.0,16.0,47,0.00,,,0.00,meteohub,2013-03-08 16:11:00,
2013-03-08 11:16:00,32.2,14.2,30.12,NNW,327,9.0,16.0,47,0.00,,,0.00,meteohub,2013-03-08 16:16:00,
2013-03-08 11:21:00,32.2,14.2,30.12,North,357,6.0,17.0,47,0.00,,,0.00,meteohub,2013-03-08 16:21:00,
2013-03-08 11:26:00,32.5,15.1,30.12,North,350,5.0,17.0,48,0.00,,,0.00,meteohub,2013-03-08 16:26:00,
2013-03-08 11:33:00,32.4,13.8,30.12,West,269,8.0,17.0,46,0.00,,,0.00,meteohub,2013-03-08 16:33:00,
2013-03-08 11:38:00,32.5,14.5,30.12,North,0,8.0,16.0,47,0.00,,,0.00,meteohub,2013-03-08 16:38:00,
2013-03-08 11:43:00,32.4,14.4,30.12,NW,323,8.0,16.0,47,0.00,,,0.00,meteohub,2013-03-08 16:43:00,
2013-03-08 11:48:00,32.7,15.3,30.12,WNW,300,8.0,16.0,48,0.00,,,0.00,meteohub,2013-03-08 16:48:00,
2013-03-08 11:53:00,32.9,14.9,30.12,NNW,340,8.0,15.0,47,0.00,,,0.00,meteohub,2013-03-08 16:53:00,
2013-03-08 11:58:00,32.9,14.4,30.12,NNW,327,9.0,15.0,46,0.00,,,0.00,meteohub,2013-03-08 16:58:00,
2013-03-08 12:03:00,33.1,15.1,30.12,WNW,285,9.0,17.0,47,0.00,,,0.00,meteohub,2013-03-08 17:03:00,
2013-03-08 12:08:00,33.1,15.1,30.12,WNW,303,11.0,17.0,47,0.00,,,0.00,meteohub,2013-03-08 17:08:00,
2013-03-08 12:13:00,33.3,14.7,30.12,NW,324,12.0,17.0,46,0.00,,,0.00,meteohub,2013-03-08 17:13:00,
2013-03-08 12:18:00,33.4,14.9,30.12,NNW,338,13.0,14.0,46,0.00,,,0.00,meteohub,2013-03-08 17:18:00,
2013-03-08 12:23:00,33.4,14.4,30.12,NW,320,8.0,16.0,45,0.00,,,0.00,meteohub,2013-03-08 17:23:00,
2013-03-08 12:28:00,33.6,15.1,30.12,NNW,336,11.0,16.0,46,0.00,,,0.00,meteohub,2013-03-08 17:28:00,
2013-03-08 12:33:00,33.4,14.4,30.12,NNW,345,11.0,16.0,45,0.00,,,0.00,meteohub,2013-03-08 17:33:00,
2013-03-08 12:38:00,33.6,15.1,30.12,North,353,9.0,16.0,46,0.00,,,0.00,meteohub,2013-03-08 17:38:00,
2013-03-08 12:43:00,33.6,14.5,30.12,NNW,338,8.0,15.0,45,0.00,,,0.00,meteohub,2013-03-08 17:43:00,
2013-03-08 12:48:00,33.4,14.4,30.12,NW,304,11.0,15.0,45,0.00,,,0.00,meteohub,2013-03-08 17:48:00,
2013-03-08 12:53:00,33.4,14.4,30.12,NNW,343,11.0,14.0,45,0.00,,,0.00,meteohub,2013-03-08 17:53:00,
2013-03-08 12:58:00,33.6,14.5,30.12,WNW,297,11.0,17.0,45,0.00,,,0.00,meteohub,2013-03-08 17:58:00,
2013-03-08 13:03:00,33.6,14.5,30.12,NNW,346,13.0,17.0,45,0.00,,,0.00,meteohub,2013-03-08 18:03:00,
2013-03-08 13:08:00,33.6,14.0,30.12,WNW,295,11.0,15.0,44,0.00,,,0.00,meteohub,2013-03-08 18:08:00,
2013-03-08 13:13:00,33.6,14.0,30.12,NNW,346,11.0,15.0,44,0.00,,,0.00,meteohub,2013-03-08 18:13:00,
2013-03-08 13:18:00,33.8,13.6,30.12,NW,316,13.0,15.0,43,0.00,,,0.00,meteohub,2013-03-08 18:18:00,
2013-03-08 13:23:00,34.0,13.8,30.12,NW,323,14.0,15.0,43,0.00,,,0.00,meteohub,2013-03-08 18:23:00,
2013-03-08 13:28:00,34.2,14.0,30.12,NW,319,9.0,15.0,43,0.00,,,0.00,meteohub,2013-03-08 18:28:00,
2013-03-08 13:33:00,34.5,14.4,30.12,NNW,335,12.0,15.0,43,0.00,,,0.00,meteohub,2013-03-08 18:33:00,
2013-03-08 13:38:00,34.7,15.1,30.12,NW,315,11.0,15.0,44,0.00,,,0.00,meteohub,2013-03-08 18:38:00,
2013-03-08 13:43:00,34.9,14.7,30.12,NW,308,10.0,16.0,43,0.00,,,0.00,meteohub,2013-03-08 18:43:00,
2013-03-08 13:48:00,35.1,14.9,30.12,NNW,343,9.0,16.0,43,0.00,,,0.00,meteohub,2013-03-08 18:48:00,
2013-03-08 13:53:00,35.2,14.9,30.12,North,353,8.0,16.0,43,0.00,,,0.00,meteohub,2013-03-08 18:53:00,
2013-03-08 13:58:00,35.4,15.1,30.12,NNW,332,8.0,13.0,43,0.00,,,0.00,meteohub,2013-03-08 18:58:00,
2013-03-08 14:06:00,35.6,14.7,30.12,NNW,330,11.0,15.0,42,0.00,,,0.00,meteohub,2013-03-08 19:06:00,
2013-03-08 14:11:00,35.6,14.7,30.12,NW,322,11.0,15.0,42,0.00,,,0.00,meteohub,2013-03-08 19:11:00,
2013-03-08 14:16:00,35.8,14.9,30.12,NW,310,12.0,15.0,42,0.00,,,0.00,meteohub,2013-03-08 19:16:00,
2013-03-08 14:21:00,35.8,14.4,30.12,NNW,343,12.0,15.0,41,0.00,,,0.00,meteohub,2013-03-08 19:21:00,
2013-03-08 14:26:00,35.8,14.4,30.12,NW,321,11.0,15.0,41,0.00,,,0.00,meteohub,2013-03-08 19:26:00,
2013-03-08 14:35:00,36.0,14.5,30.12,NNW,328,8.0,15.0,41,0.00,,,0.00,meteohub,2013-03-08 19:35:00,
2013-03-08 14:43:00,36.1,14.7,30.12,NNW,332,15.0,17.0,41,0.00,,,0.00,meteohub,2013-03-08 19:43:00,
2013-03-08 14:59:00,36.3,15.4,30.12,WNW,289,5.0,15.0,42,0.00,,,0.00,meteohub,2013-03-08 19:59:00,
2013-03-08 15:04:00,36.3,15.4,30.12,NNW,335,8.0,14.0,42,0.00,,,0.00,meteohub,2013-03-08 20:04:00,
2013-03-08 15:09:00,36.3,14.9,30.12,North,353,15.0,15.0,41,0.00,,,0.00,meteohub,2013-03-08 20:09:00,
2013-03-08 15:14:00,36.3,14.9,30.12,North,0,10.0,15.0,41,0.00,,,0.00,meteohub,2013-03-08 20:14:00,
2013-03-08 15:19:00,36.3,14.9,30.12,NW,325,11.0,15.0,41,0.00,,,0.00,meteohub,2013-03-08 20:19:00,
2013-03-08 15:24:00,36.5,15.1,30.14,NNE,14,13.0,17.0,41,0.00,,,0.00,meteohub,2013-03-08 20:24:00,
2013-03-08 15:29:00,36.5,15.1,30.14,NW,324,8.0,17.0,41,0.00,,,0.00,meteohub,2013-03-08 20:29:00,
2013-03-08 15:34:00,36.5,15.1,30.14,NW,322,11.0,17.0,41,0.00,,,0.00,meteohub,2013-03-08 20:34:00,
2013-03-08 15:39:00,36.5,15.1,30.14,NNW,333,6.0,17.0,41,0.00,,,0.00,meteohub,2013-03-08 20:39:00,
2013-03-08 15:44:00,36.7,15.3,30.14,NNW,344,11.0,17.0,41,0.00,,,0.00,meteohub,2013-03-08 20:44:00,
2013-03-08 15:49:00,36.7,15.3,30.14,North,0,8.0,17.0,41,0.00,,,0.00,meteohub,2013-03-08 20:49:00,
2013-03-08 15:54:00,36.7,15.3,30.14,North,10,15.0,18.0,41,0.00,,,0.00,meteohub,2013-03-08 20:54:00,
2013-03-08 15:59:00,36.7,15.3,30.14,NW,314,11.0,18.0,41,0.00,,,0.00,meteohub,2013-03-08 20:59:00,
2013-03-08 16:04:00,36.7,15.3,30.14,WNW,294,6.0,18.0,41,0.00,,,0.00,meteohub,2013-03-08 21:04:00,
2013-03-08 16:09:00,36.7,15.3,30.14,NW,307,8.0,17.0,41,0.00,,,0.00,meteohub,2013-03-08 21:09:00,
2013-03-08 16:14:00,36.7,15.3,30.14,NW,306,11.0,16.0,41,0.00,,,0.00,meteohub,2013-03-08 21:14:00,
2013-03-08 16:19:00,36.7,15.3,30.14,NNW,335,8.0,16.0,41,0.00,,,0.00,meteohub,2013-03-08 21:19:00,
2013-03-08 16:24:00,36.7,14.5,30.14,NNW,348,12.0,16.0,40,0.00,,,0.00,meteohub,2013-03-08 21:24:00,
2013-03-08 16:29:00,36.7,15.3,30.14,NNW,338,13.0,15.0,41,0.00,,,0.00,meteohub,2013-03-08 21:29:00,
2013-03-08 16:34:00,36.7,14.5,30.14,NW,314,10.0,17.0,40,0.00,,,0.00,meteohub,2013-03-08 21:34:00,
2013-03-08 16:39:00,36.7,14.5,30.14,NNW,333,13.0,17.0,40,0.00,,,0.00,meteohub,2013-03-08 21:39:00,
2013-03-08 16:44:00,36.7,14.5,30.14,NW,325,6.0,17.0,40,0.00,,,0.00,meteohub,2013-03-08 21:44:00,
2013-03-08 16:49:00,36.5,15.1,30.14,NNW,341,6.0,15.0,41,0.00,,,0.00,meteohub,2013-03-08 21:49:00,
2013-03-08 16:54:00,36.3,14.9,30.14,NNW,335,9.0,15.0,41,0.00,,,0.00,meteohub,2013-03-08 21:54:00,
2013-03-08 16:59:00,36.5,14.5,30.14,NW,325,6.0,15.0,40,0.00,,,0.00,meteohub,2013-03-08 21:59:00,
2013-03-08 17:04:00,36.3,14.4,30.14,NW,326,11.0,15.0,40,0.00,,,0.00,meteohub,2013-03-08 22:04:00,
2013-03-08 17:09:00,36.3,14.4,30.17,North,353,8.0,15.0,40,0.00,,,0.00,meteohub,2013-03-08 22:09:00,
2013-03-08 17:14:00,36.1,14.2,30.17,NW,325,15.0,17.0,40,0.00,,,0.00,meteohub,2013-03-08 22:14:00,
2013-03-08 17:19:00,36.0,14.0,30.17,NNW,341,11.0,17.0,40,0.00,,,0.00,meteohub,2013-03-08 22:19:00,
2013-03-08 17:24:00,36.0,14.0,30.17,NW,324,12.0,17.0,40,0.00,,,0.00,meteohub,2013-03-08 22:24:00,
2013-03-08 17:29:00,35.6,13.6,30.17,NW,319,8.0,15.0,40,0.00,,,0.00,meteohub,2013-03-08 22:29:00,
2013-03-08 17:34:00,35.4,14.0,30.17,NW,314,9.0,15.0,41,0.00,,,0.00,meteohub,2013-03-08 22:34:00,
2013-03-08 17:39:00,35.1,13.6,30.17,NNW,346,9.0,13.0,41,0.00,,,0.00,meteohub,2013-03-08 22:39:00,
2013-03-08 17:44:00,35.2,13.8,30.17,NNW,338,8.0,13.0,41,0.00,,,0.00,meteohub,2013-03-08 22:44:00,
2013-03-08 17:49:00,35.1,13.6,30.17,NW,325,10.0,13.0,41,0.00,,,0.00,meteohub,2013-03-08 22:49:00,
2013-03-08 17:54:00,35.1,13.6,30.17,NW,326,9.0,13.0,41,0.00,,,0.00,meteohub,2013-03-08 22:54:00,
2013-03-08 17:59:00,34.7,13.5,30.17,NNW,338,10.0,13.0,41,0.00,,,0.00,meteohub,2013-03-08 22:59:00,
2013-03-08 18:04:00,34.7,13.5,30.17,NNW,348,11.0,13.0,41,0.00,,,0.00,meteohub,2013-03-08 23:04:00,
2013-03-08 18:09:00,34.5,13.3,30.17,NNW,329,11.0,13.0,41,0.00,,,0.00,meteohub,2013-03-08 23:09:00,
2013-03-08 18:14:00,34.3,13.1,30.17,NNW,327,5.0,13.0,41,0.00,,,0.00,meteohub,2013-03-08 23:14:00,
2013-03-08 18:19:00,34.3,13.6,30.17,NNW,341,8.0,14.0,42,0.00,,,0.00,meteohub,2013-03-08 23:19:00,
2013-03-08 18:24:00,34.2,13.5,30.17,NW,311,6.0,14.0,42,0.00,,,0.00,meteohub,2013-03-08 23:24:00,
2013-03-08 18:29:00,34.0,13.3,30.17,NW,305,11.0,14.0,42,0.00,,,0.00,meteohub,2013-03-08 23:29:00,
2013-03-08 18:34:00,34.0,13.3,30.17,NW,318,9.0,11.0,42,0.00,,,0.00,meteohub,2013-03-08 23:34:00,
2013-03-08 18:39:00,34.0,13.3,30.20,NNW,341,8.0,12.0,42,0.00,,,0.00,meteohub,2013-03-08 23:39:00,
2013-03-08 18:44:00,34.0,13.3,30.20,NNW,338,8.0,12.0,42,0.00,,,0.00,meteohub,2013-03-08 23:44:00,
2013-03-08 18:49:00,33.8,13.1,30.20,NW,315,8.0,12.0,42,0.00,,,0.00,meteohub,2013-03-08 23:49:00,
2013-03-08 18:54:00,33.8,13.1,30.20,NNW,337,8.0,12.0,42,0.00,,,0.00,meteohub,2013-03-08 23:54:00,
2013-03-08 18:59:00,33.6,13.5,30.20,NNW,339,10.0,12.0,43,0.00,,,0.00,meteohub,2013-03-08 23:59:00,
2013-03-08 19:05:00,33.6,13.5,30.20,NW,310,8.0,13.0,43,0.00,,,0.00,meteohub,2013-03-09 00:05:00,
2013-03-08 19:10:00,33.4,13.3,30.20,NNW,332,8.0,13.0,43,0.00,,,0.00,meteohub,2013-03-09 00:10:00,
2013-03-08 19:15:00,33.3,13.1,30.20,WNW,294,6.0,13.0,43,0.00,,,0.00,meteohub,2013-03-09 00:15:00,
2013-03-08 19:20:00,33.3,13.1,30.20,NW,317,10.0,11.0,43,0.00,,,0.00,meteohub,2013-03-09 00:20:00,
2013-03-08 19:25:00,33.1,13.1,30.20,NNW,330,8.0,11.0,43,0.00,,,0.00,meteohub,2013-03-09 00:25:00,
2013-03-08 19:30:00,33.1,13.1,30.20,NNW,344,6.0,11.0,43,0.00,,,0.00,meteohub,2013-03-09 00:30:00,
2013-03-08 19:35:00,33.1,13.1,30.20,NW,316,8.0,11.0,43,0.00,,,0.00,meteohub,2013-03-09 00:35:00,
2013-03-08 19:40:00,33.3,13.1,30.20,NW,307,10.0,11.0,43,0.00,,,0.00,meteohub,2013-03-09 00:40:00,
2013-03-08 19:45:00,32.9,12.9,30.20,NNW,330,11.0,11.0,43,0.00,,,0.00,meteohub,2013-03-09 00:45:00,
2013-03-08 19:50:00,32.7,12.7,30.20,WNW,291,10.0,12.0,43,0.00,,,0.00,meteohub,2013-03-09 00:50:00,
2013-03-08 19:55:00,32.9,12.9,30.20,North,349,8.0,12.0,43,0.00,,,0.00,meteohub,2013-03-09 00:55:00,
2013-03-08 20:00:00,32.9,12.9,30.20,WNW,303,11.0,12.0,43,0.00,,,0.00,meteohub,2013-03-09 01:00:00,
2013-03-08 20:05:00,32.7,12.7,30.20,NNW,341,9.0,11.0,43,0.00,,,0.00,meteohub,2013-03-09 01:05:00,
2013-03-08 20:10:00,32.5,12.6,30.20,NW,325,11.0,11.0,43,0.00,,,0.00,meteohub,2013-03-09 01:10:00,
2013-03-08 20:15:00,32.5,12.6,30.20,WNW,295,8.0,11.0,43,0.00,,,0.00,meteohub,2013-03-09 01:15:00,
2013-03-08 20:20:00,32.5,12.6,30.20,NNW,344,8.0,11.0,43,0.00,,,0.00,meteohub,2013-03-09 01:20:00,
2013-03-08 20:25:00,32.5,12.6,30.20,NNW,337,8.0,12.0,43,0.00,,,0.00,meteohub,2013-03-09 01:25:00,
2013-03-08 20:30:00,32.5,12.6,30.20,NNW,337,8.0,12.0,43,0.00,,,0.00,meteohub,2013-03-09 01:30:00,
2013-03-08 20:35:00,32.4,12.4,30.20,NW,321,9.0,12.0,43,0.00,,,0.00,meteohub,2013-03-09 01:35:00,
2013-03-08 20:40:00,32.4,12.4,30.20,NNW,332,10.0,11.0,43,0.00,,,0.00,meteohub,2013-03-09 01:40:00,
2013-03-08 20:45:00,32.2,12.7,30.20,NNW,329,8.0,11.0,44,0.00,,,0.00,meteohub,2013-03-09 01:45:00,
2013-03-08 20:50:00,32.2,12.7,30.20,NW,323,8.0,11.0,44,0.00,,,0.00,meteohub,2013-03-09 01:50:00,
2013-03-08 20:55:00,32.4,12.4,30.23,NW,317,11.0,13.0,43,0.00,,,0.00,meteohub,2013-03-09 01:55:00,
2013-03-08 21:00:00,32.5,12.6,30.23,NNW,331,10.0,13.0,43,0.00,,,0.00,meteohub,2013-03-09 02:00:00,
2013-03-08 21:05:00,32.4,12.4,30.23,NNW,332,9.0,13.0,43,0.00,,,0.00,meteohub,2013-03-09 02:05:00,
2013-03-08 21:10:00,32.2,12.2,30.23,NNW,332,11.0,13.0,43,0.00,,,0.00,meteohub,2013-03-09 02:10:00,
2013-03-08 21:15:00,32.2,12.7,30.23,NNW,345,11.0,13.0,44,0.00,,,0.00,meteohub,2013-03-09 02:15:00,
2013-03-08 21:20:00,32.0,12.6,30.23,NW,315,9.0,13.0,44,0.00,,,0.00,meteohub,2013-03-09 02:20:00,
2013-03-08 21:25:00,32.0,12.6,30.23,NW,325,9.0,13.0,44,0.00,,,0.00,meteohub,2013-03-09 02:25:00,
2013-03-08 21:30:00,32.2,12.7,30.23,NNW,337,12.0,13.0,44,0.00,,,0.00,meteohub,2013-03-09 02:30:00,
2013-03-08 21:35:00,32.0,12.6,30.23,NNW,334,10.0,14.0,44,0.00,,,0.00,meteohub,2013-03-09 02:35:00,
2013-03-08 21:40:00,32.0,12.0,30.23,NNW,329,9.0,14.0,43,0.00,,,0.00,meteohub,2013-03-09 02:40:00,
2013-03-08 21:45:00,31.8,11.8,30.23,NNW,332,11.0,14.0,43,0.00,,,0.00,meteohub,2013-03-09 02:45:00,
2013-03-08 21:50:00,31.8,12.4,30.23,NW,316,11.0,13.0,44,0.00,,,0.00,meteohub,2013-03-09 02:50:00,
2013-03-08 21:55:00,32.0,12.6,30.23,NNW,341,13.0,13.0,44,0.00,,,0.00,meteohub,2013-03-09 02:55:00,
2013-03-08 22:00:00,32.2,12.2,30.23,NNW,329,8.0,15.0,43,0.00,,,0.00,meteohub,2013-03-09 03:00:00,
2013-03-08 22:05:00,31.8,12.4,30.23,NNW,341,13.0,15.0,44,0.00,,,0.00,meteohub,2013-03-09 03:05:00,
2013-03-08 22:10:00,32.0,12.6,30.23,NNW,342,12.0,15.0,44,0.00,,,0.00,meteohub,2013-03-09 03:10:00,
2013-03-08 22:15:00,32.0,12.0,30.23,WNW,294,11.0,15.0,43,0.00,,,0.00,meteohub,2013-03-09 03:15:00,
2013-03-08 22:20:00,32.0,12.6,30.23,NW,311,12.0,15.0,44,0.00,,,0.00,meteohub,2013-03-09 03:20:00,
2013-03-08 22:25:00,31.8,12.4,30.23,NNW,332,12.0,15.0,44,0.00,,,0.00,meteohub,2013-03-09 03:25:00,
2013-03-08 22:30:00,31.6,12.2,30.23,North,357,10.0,15.0,44,0.00,,,0.00,meteohub,2013-03-09 03:30:00,
2013-03-08 22:35:00,32.0,12.6,30.23,NNW,344,11.0,14.0,44,0.00,,,0.00,meteohub,2013-03-09 03:35:00,
2013-03-08 22:40:00,31.6,12.2,30.23,NNW,336,10.0,14.0,44,0.00,,,0.00,meteohub,2013-03-09 03:40:00,
2013-03-08 22:45:00,31.3,11.8,30.23,NNW,344,8.0,14.0,44,0.00,,,0.00,meteohub,2013-03-09 03:45:00,
2013-03-08 22:50:00,31.3,11.8,30.23,NNW,340,6.0,14.0,44,0.00,,,0.00,meteohub,2013-03-09 03:50:00,
2013-03-08 22:55:00,31.1,11.7,30.23,NW,326,10.0,13.0,44,0.00,,,0.00,meteohub,2013-03-09 03:55:00,
2013-03-08 23:00:00,30.9,11.5,30.23,WSW,244,7.0,11.0,44,0.00,,,0.00,meteohub,2013-03-09 04:00:00,
2013-03-08 23:05:00,30.7,11.5,30.23,NW,319,5.0,11.0,44,0.00,,,0.00,meteohub,2013-03-09 04:05:00,
2013-03-08 23:10:00,30.4,11.1,30.23,NW,315,5.0,10.0,44,0.00,,,0.00,meteohub,2013-03-09 04:10:00,
2013-03-08 23:15:00,30.4,11.7,30.23,WNW,297,6.0,9.0,45,0.00,,,0.00,meteohub,2013-03-09 04:15:00,
2013-03-08 23:20:00,30.0,11.3,30.23,North,-999,-999.0,9.0,45,0.00,,,0.00,meteohub,2013-03-09 04:20:00,
2013-03-08 23:25:00,29.8,11.1,30.23,North,-999,-999.0,6.0,45,0.00,,,0.00,meteohub,2013-03-09 04:25:00,
2013-03-08 23:30:00,29.8,11.1,30.23,NW,322,3.0,6.0,45,0.00,,,0.00,meteohub,2013-03-09 04:30:00,
2013-03-08 23:35:00,29.8,11.7,30.23,East,101,0.0,3.0,46,0.00,,,0.00,meteohub,2013-03-09 04:35:00,
2013-03-08 23:40:00,29.5,11.3,30.23,North,-999,-999.0,3.0,46,0.00,,,0.00,meteohub,2013-03-09 04:40:00,
2013-03-08 23:45:00,29.3,10.6,30.23,North,-999,-999.0,3.0,45,0.00,,,0.00,meteohub,2013-03-09 04:45:00,
2013-03-08 23:50:00,28.9,10.8,30.23,North,-999,-999.0,-999.0,46,0.00,,,0.00,meteohub,2013-03-09 04:50:00,
2013-03-08 23:55:00,28.2,10.0,30.23,North,-999,-999.0,-999.0,46,0.00,,,0.00,meteohub,2013-03-09 04:55:00,